Location: Navajo
(48.7922°N, 105.0603°W)
Time: 10:38:00
(UTC+00:00)

DUCHIFAT 1 - Pass Details

Date: 02 July 2022
Orbit: 580 x 596 km, 98.0° (Epoch: 07 August)

Event Time Altitude Azimuth Distance (km) Brightness Sun altitude
Rises 08:58:14 0° 22° (NNE) 2,844 ? -13.8°
Reaches altitude 10° 09:00:37 10° 33° (NNE) 1,940 ? -13.6°
Maximum altitude 09:04:21 30° 96° (E) 1,071 ? -13.3°
Drops below altitude 10° 09:08:05 10° 159° (SSE) 1,930 ? -13.0°
Enters shadow 09:08:22 - 160° (SSE) 2,038 ? -13.0°
